This is the latest recevied weather packets stored in our database for station/object IR3AS. If no packets are shown the sender has not sent any weather packets the latest 10 day(s).
| Time | Temp. | Humidity | Pressure | Rain* | Wind** | Luminosity | Snow |
|---|---|---|---|---|---|---|---|
| 1787814901 | 14.44° C | 80% | 869.2 hPa | 0 mm | - | - | - |
| 1787814601 | 15° C | 81% | 869.3 hPa | 0 mm | - | - | - |
| 1787814300 | 14.44° C | 82% | 869.2 hPa | 0 mm | - | - | - |
| 1787814001 | 13.89° C | 82% | 869.4 hPa | 0 mm | - | - | - |
| 1787813701 | 13.89° C | 82% | 869.2 hPa | 0 mm | - | - | - |
| 1787813401 | 13.89° C | 82% | 869.1 hPa | 0 mm | - | - | - |
| 1787813101 | 13.89° C | 83% | 869.1 hPa | 0 mm | - | - | - |
| 1787812801 | 13.89° C | 82% | 868.8 hPa | 0 mm | - | - | - |
| 1787812553 | 13.33° C | 82% | 868.9 hPa | 0 mm | - | - | - |
| 1787812501 | 13.33° C | 82% | 868.9 hPa | 0 mm | - | - | - |
| 1787812201 | 13.33° C | 82% | 868.9 hPa | 0 mm | - | - | - |
| 1787811901 | 13.33° C | 82% | 868.4 hPa | 0 mm | - | - | - |
| 1787811601 | 13.33° C | 82% | 868 hPa | 0 mm | - | - | - |
| 1787811302 | 13.33° C | 83% | 868.1 hPa | 0 mm | - | - | - |
| 1787811001 | 13.33° C | 83% | 867.7 hPa | 0 mm | - | - | - |
| 1787810701 | 12.78° C | 84% | 867.7 hPa | 0 mm | - | - | - |
| 1787810447 | 12.78° C | 85% | 867.8 hPa | 0 mm | - | - | - |
| 1787810401 | 12.78° C | 85% | 867.8 hPa | 0 mm | - | - | - |
| 1787810101 | 12.78° C | 85% | 867.5 hPa | 0 mm | - | - | - |
| 1787809801 | 12.22° C | 88% | 867.1 hPa | 0 mm | - | - | - |
| 1787809501 | 12.22° C | 92% | 867.2 hPa | 0 mm | - | - | - |
| 1787809201 | 11.67° C | 93% | 867.2 hPa | 0 mm | - | - | - |
| 1787808901 | 11.67° C | 93% | 867.4 hPa | 0 mm | - | - | - |
| 1787808601 | 11.67° C | 94% | 867.4 hPa | 0 mm | - | - | - |
| 1787808301 | 11.11° C | 94% | 867.5 hPa | 0 mm | - | - | - |
* Rain latest hour (hover to see other rain measurements)
** Current wind speed in m/s (hover to see current wind gust speed)